Weather History for KDUJ - September, 2014

Change the Weather History Date:

Monday, September 1, 2014

  Actual Average Record
Temperature  
Mean Temperature 74 °F 65 °F  
Max Temperature 79 °F 75 °F 89 °F (1973)
Min Temperature 68 °F 55 °F 39 °F (1967)
Degree Days  
Heating Degree Days 0 2  
Month to date heating degree days 0 2  
Since 1 July heating degree days 72 64  
Cooling Degree Days 9 2  
Month to date cooling degree days 9 2  
Year to date cooling degree days 384 333  
Growing Degree Days 23 (Base 50)    
Moisture  
Dew Point 68 °F    
Average Humidity 87    
Maximum Humidity 100    
Minimum Humidity 74    
Precipitation  
Precipitation 0.05 in 0.12 in 1.69 in (1965)
Month to date precipitation 0.05 0.12  
Sea Level Pressure  
Sea Level Pressure 30.01 in    
Wind  
Wind Speed 7 mph (SW)    
Max Wind Speed 13 mph    
Max Gust Speed 18 mph    
Visibility 7 miles    
Events Rain    
T = Trace of Precipitation, MM = Missing Value Source: NWS Daily Summary

Daily Weather History Graph

Daily Weather History Graph

Search for Another Location

Airport or City:

Trip Planner

Search our weather history database for the weather conditions in past years. The results will help you decide how hot, cold, wet, or windy it might be!

Date:

Astronomy

Sep. 01, 2014 Rise Set
Actual Time 6:42 AM EDT 7:48 PM EDT
Civil Twilight 6:13 AM EDT 8:16 PM EDT
Nautical Twilight 5:39 AM EDT 8:50 PM EDT
Astronomical Twilight 5:04 AM EDT 9:25 PM EDT
Moon 1:29 PM EDT (9/1) 11:44 PM EDT (9/1)
Length of Visible Light 14h 02m
Length of Day
13h 06m
Waxing Crescent, 42% of the Moon is Illuminated
Sep 1
Waxing Crescent
Sep 2
First Quarter
Sep 8
Full
Sep 15
Last Quarter
Sep 24
New

Hourly Weather History & Observations

Time (EDT) Temp. Dew Point Humidity Pressure Visibility Wind Dir Wind Speed Gust Speed Precip Events Conditions
12:19 AM 69.1 °F 68.0 °F 96% 30.05 in 7.0 mi SW 9.2 mph - N/A   Overcast
12:43 AM 69.1 °F 68.0 °F 96% 30.05 in 2.5 mi SW 5.8 mph - 0.02 in Rain Light Rain
12:53 AM 69.1 °F 68.0 °F 96% 30.01 in 2.0 mi SSW 5.8 mph - 0.04 in Rain Light Rain
1:02 AM 69.1 °F 68.0 °F 96% 30.05 in 4.0 mi SW 5.8 mph - 0.00 in Rain Light Rain
1:14 AM 69.1 °F 68.0 °F 96% 30.05 in 6.0 mi SW 5.8 mph - 0.00 in   Overcast
1:53 AM 69.1 °F 68.0 °F 96% 30.01 in 6.0 mi SW 5.8 mph - 0.00 in   Overcast
2:35 AM 69.1 °F 68.0 °F 96% 30.04 in 6.0 mi WSW 9.2 mph - N/A   Overcast
2:53 AM 69.1 °F 68.0 °F 96% 30.01 in 5.0 mi WSW 8.1 mph - N/A   Overcast
3:53 AM 69.1 °F 68.0 °F 96% 30.01 in 5.0 mi WSW 9.2 mph - N/A   Overcast
4:38 AM 68.0 °F 68.0 °F 100% 30.06 in 4.0 mi WSW 8.1 mph - N/A   Overcast
4:53 AM 68.0 °F 68.0 °F 100% 30.02 in 4.0 mi WSW 5.8 mph - N/A   Overcast
5:53 AM 68.0 °F 68.0 °F 100% 30.02 in 3.0 mi SW 4.6 mph - N/A   Overcast
6:38 AM 68.0 °F 66.9 °F 96% 30.06 in 4.0 mi SW 5.8 mph - N/A   Overcast
6:53 AM 68.0 °F 66.9 °F 96% 30.02 in 2.5 mi SSW 3.5 mph - N/A   Overcast
7:07 AM 68.0 °F 66.9 °F 96% 30.05 in 3.0 mi SSW 3.5 mph - N/A   Overcast
7:53 AM 68.0 °F 66.9 °F 96% 30.03 in 4.0 mi SW 3.5 mph - N/A   Overcast
8:53 AM 69.1 °F 66.9 °F 93% 30.02 in 7.0 mi South 5.8 mph - N/A   Overcast
9:34 AM 70.0 °F 66.9 °F 90% 30.05 in 10.0 mi South 4.6 mph - N/A   Mostly Cloudy
9:53 AM 70.0 °F 66.9 °F 90% 30.01 in 10.0 mi South 3.5 mph - N/A   Mostly Cloudy
11:53 AM 71.1 °F 69.1 °F 93% 30.01 in 9.0 mi SW 4.6 mph - N/A   Overcast
12:53 PM 70.0 °F 69.1 °F 97% 30.01 in 2.0 mi WSW 4.6 mph - 0.04 in Rain Light Rain
1:03 PM 71.1 °F 69.1 °F 93% 30.04 in 2.5 mi Calm Calm - 0.01 in Rain Light Rain
1:13 PM 73.0 °F 70.0 °F 90% 30.03 in 8.0 mi Calm Calm - 0.01 in   Overcast
1:53 PM 73.9 °F 70.0 °F 87% 29.99 in 10.0 mi SSW 6.9 mph - 0.01 in   Overcast
2:10 PM 75.0 °F 70.0 °F 84% 30.02 in 10.0 mi SSW 8.1 mph - N/A   Mostly Cloudy
2:26 PM 75.9 °F 70.0 °F 82% 30.01 in 10.0 mi SSW 6.9 mph - N/A   Scattered Clouds
2:53 PM 77.0 °F 69.1 °F 76% 29.97 in 10.0 mi SW 10.4 mph - N/A   Mostly Cloudy
3:53 PM 77.0 °F 68.0 °F 74% 29.94 in 10.0 mi SSW 10.4 mph - N/A   Mostly Cloudy
4:53 PM 78.1 °F 69.1 °F 74% 29.94 in 10.0 mi SW 11.5 mph - N/A   Scattered Clouds
5:53 PM 75.9 °F 68.0 °F 76% 29.94 in 10.0 mi SW 6.9 mph - N/A   Overcast
6:53 PM 75.9 °F 69.1 °F 79% 29.93 in 10.0 mi SSW 8.1 mph - N/A   Mostly Cloudy
7:53 PM 73.0 °F 68.0 °F 84% 29.94 in 10.0 mi SW 6.9 mph - N/A   Scattered Clouds
8:53 PM 71.1 °F 68.0 °F 90% 29.95 in 10.0 mi SSW 6.9 mph - N/A   Scattered Clouds
9:53 PM 71.1 °F 68.0 °F 90% 29.95 in 9.0 mi SSW 3.5 mph - N/A   Partly Cloudy
10:53 PM 72.0 °F 69.1 °F 91% 29.95 in 10.0 mi SSW 4.6 mph - N/A   Mostly Cloudy
11:53 PM 72.0 °F 68.0 °F 87% 29.95 in 10.0 mi SSW 9.2 mph - N/A   Overcast